Temperature
1 0 -0 0 -0 -1 -1 1 2 3 2 2 2 1 0 -1 -1 -2 -2 -2 -2 -2 -2 -3 -3 -2 -2 -2 -2 -3 -3 -3 -3 -3 -3 -3 -3 -3 -3 -3 -3 -2 -2 -2
-1 -1 -1 -1 -1 -1 -1 -1 -0 0 0 1 -0 -1 -2 -2 -2 -2 -3 -3 -3 -3 -3 -3 -3 -3 -3 -3 -3 -3 -3 -3 -3 -3 -3 -3 -3 -4 -3 -3 -3 -3 -3 -3
1 -1 -2 -0 -1 -1 -2 -2 -1 -0 1 -1 -2 -2 -2 -2 -3 -3 -3 -3 -3 -3 -3 -3 -4 -4 -4 -4 -4 -4 -4 -4 -4 -4 -4 -4 -4 -4 -4 -4 -4 -4 -4 -4
-0 -1 -0 2 -2 -2 -2 -2 -3 -2 -2 -2 -2 -3 -3 -3 -3 -3 -3 -4 -4 -4 -4 -4 -4 -4 -4 -4 -4 -4 -4 -4 -4 -5 -5 -5 -5 -5 -5 -5 -5 -5 -5 -5
-1 -0 1 0 -2 -3 -3 -2 -3 -3 -3 -3 -4 -4 -3 -3 -3 -4 -4 -4 -4 -4 -4 -4 -5 -5 -5 -5 -5 -5 -5 -5 -5 -5 -5 -5 -5 -5 -5 -5 -5 -5 -6 -5
-2 -1 -0 1 -3 -5 -3 -1 -3 -4 -4 -4 -5 -1 -1 -3 -4 -4 -4 -4 -5 -5 -5 -5 -5 -5 -5 -5 -5 -5 -6 -6 -6 -6 -6 -6 -6 -6 -6 -6 -6 -6 -6 -6
-2 -2 -0 -2 -5 -4 -2 -1 -3 -5 -5 -5 -4 -3 -4 -4 -4 -5 -5 -5 -5 -5 -5 -5 -5 -6 -6 -6 -6 -6 -6 -6 -6 -7 -7 -7 -7 -7 -7 -7 -7 -7 -7 -7
-3 -2 -1 -4 -5 -3 -2 -3 -4 -5 -5 -5 -5 -5 -5 -5 -5 -5 -5 -5 -5 -6 -6 -6 -6 -6 -6 -6 -7 -7 -7 -7 -7 -7 -7 -7 -7 -7 -7 -7 -7 -8 -8 -8
-3 -2 -3 -5 -5 -4 -4 -5 -5 -5 -5 -5 -6 -6 -6 -6 -6 -6 -6 -6 -6 -6 -6 -6 -7 -7 -7 -7 -7 -7 -7 -7 -8 -8 -8 -8 -8 -8 -8 -8 -8 -8 -9 -8
-5 -4 -5 -5 -5 -5 -5 -5 -5 -5 -5 -6 -6 -6 -6 -6 -6 -6 -6 -6 -6 -7 -7 -7 -7 -7 -7 -8 -8 -8 -8 -8 -8 -8 -8 -8 -8 -9 -9 -9 -9 -9 -9 -9
-6 -5 -6 -5 -5 -5 -5 -5 -5 -5 -6 -6 -6 -6 -7 -7 -7 -7 -7 -7 -7 -7 -7 -7 -8 -8 -8 -8 -8 -8 -9 -9 -9 -9 -9 -9 -9 -9 -9 -9 -9 -9 -9 -10
-4 -4 -5 -4 -4 -5 -6 -6 -6 -6 -6 -6 -7 -7 -7 -7 -7 -7 -7 -7 -7 -8 -8 -8 -8 -8 -8 -9 -9 -9 -9 -9 -9 -9 -9 -10 -10 -9 -9 -10 -10 -10 -10 -10
-5 -5 -5 -5 -6 -6 -6 -6 -6 -7 -7 -7 -7 -7 -7 -7 -7 -8 -8 -8 -8 -8 -8 -8 -8 -9 -9 -9 -9 -9 -9 -10 -10 -10 -10 -10 -10 -10 -10 -10 -10 -10 -10 -10
-6 -6 -7 -6 -6 -7 -7 -7 -7 -7 -7 -7 -7 -7 -7 -8 -8 -8 -8 -8 -8 -9 -9 -9 -9 -9 -9 -9 -10 -10 -10 -10 -10 -10 -10 -10 -11 -11 -11 -10 -10 -10 -10 -10
-7 -7 -7 -7 -7 -7 -7 -7 -7 -7 -7 -8 -8 -8 -8 -8 -8 -8 -9 -9 -9 -9 -9 -9 -9 -10 -10 -10 -10 -10 -10 -10 -11 -11 -11 -11 -11 -11 -11 -11 -11 -11 -11 -11
-7 -7 -7 -8 -8 -8 -8 -8 -8 -8 -8 -8 -8 -8 -8 -9 -9 -9 -9 -9 -9 -10 -10 -10 -10 -10 -10 -10 -11 -11 -11 -11 -11 -11 -11 -11 -11 -11 -11 -11 -11 -12 -11 -11
-8 -8 -8 -8 -8 -8 -8 -8 -8 -8 -8 -8 -9 -9 -9 -9 -9 -9 -9 -10 -10 -10 -10 -10 -10 -10 -11 -11 -11 -11 -11 -11 -11 -12 -12 -12 -12 -12 -12 -12 -12 -12 -12 -12
-8 -8 -8 -8 -8 -8 -9 -9 -9 -9 -9 -9 -9 -9 -10 -10 -10 -10 -10 -10 -10 -10 -10 -11 -11 -11 -11 -11 -11 -12 -12 -12 -12 -12 -12 -12 -12 -12 -12 -13 -12 -13 -12 -12
-8 -8 -9 -9 -9 -9 -9 -9 -9 -9 -9 -10 -10 -10 -10 -10 -10 -11 -11 -11 -11 -11 -11 -11 -11 -11 -12 -12 -12 -12 -12 -12 -12 -13 -13 -13 -13 -13 -13 -13 -13 -13 -13 -13
-9 -9 -9 -9 -9 -9 -10 -10 -10 -10 -10 -10 -10 -11 -11 -11 -11 -11 -11 -11 -11 -11 -11 -12 -12 -12 -12 -12 -12 -12 -13 -13 -13 -13 -13 -13 -13 -13 -13 -13 -13 -13 -13 -13
-10 -10 -10 -10 -10 -10 -10 -10 -11 -11 -11 -11 -11 -11 -11 -11 -11 -11 -11 -11 -11 -12 -12 -12 -12 -12 -12 -13 -13 -13 -13 -13 -13 -13 -13 -13 -13 -14 -14 -14 -14 -14 -14 -14
-10 -10 -10 -10 -11 -11 -11 -11 -11 -11 -11 -11 -11 -12 -12 -12 -12 -12 -12 -12 -12 -12 -12 -12 -13 -13 -13 -13 -13 -13 -13 -13 -13 -13 -14 -14 -14 -14 -14 -14 -14 -14 -14 -14
-11 -11 -11 -11 -11 -11 -11 -11 -12 -12 -12 -12 -12 -12 -12 -12 -12 -12 -12 -12 -12 -12 -13 -13 -13 -13 -13 -13 -13 -13 -13 -14 -14 -14 -14 -14 -14 -14 -14 -14 -14 -14 -14 -15
-11 -11 -12 -12 -12 -12 -12 -12 -12 -12 -12 -12 -12 -12 -13 -13 -12 -13 -13 -13 -13 -13 -13 -13 -13 -13 -13 -13 -13 -14 -14 -14 -14 -14 -14 -14 -14 -14 -15 -15 -15 -15 -15 -15
-12 -12 -12 -12 -12 -12 -12 -12 -12 -12 -13 -13 -13 -13 -13 -13 -13 -13 -13 -13 -13 -13 -13 -13 -13 -14 -14 -14 -14 -14 -14 -14 -14 -14 -14 -14 -14 -15 -15 -15 -15 -15 -15 -15
-12 -12 -13 -13 -13 -13 -13 -13 -13 -13 -13 -13 -13 -13 -13 -13 -13 -13 -14 -14 -14 -14 -14 -14 -14 -14 -14 -14 -14 -14 -14 -14 -14 -14 -14 -15 -15 -15 -15 -15 -15 -15 -15 -15
-13 -13 -13 -13 -13 -13 -13 -13 -13 -14 -14 -14 -14 -14 -14 -14 -14 -14 -14 -14 -14 -14 -14 -14 -14 -14 -15 -15 -15 -15 -15 -15 -15 -15 -15 -15 -15 -15 -15 -15 -15 -15 -15 -15
Wind_Speed
7 6 4 6 7 7 10 11 11 11 12 13 11 9 8 7 6 5 5 5 4 4 4 3 4 4 4 3 3 3 3 3 4 4 4 4 4 4 4 5 5 5 5 5
5 4 4 7 10 10 11 11 13 14 15 12 10 7 6 6 5 6 7 6 5 4 4 4 4 4 4 4 4 3 3 4 4 4 4 4 4 4 4 4 5 4 5 5
5 2 3 8 8 10 7 8 8 12 10 5 6 6 7 6 6 7 7 6 5 5 5 4 4 4 4 4 4 3 3 4 4 4 4 4 4 4 5 5 5 5 5 5
3 1 7 3 1 4 7 6 7 8 8 6 7 8 8 7 6 7 7 6 6 5 4 4 4 3 3 4 3 3 3 4 4 4 4 4 4 5 5 5 5 5 5 5
3 5 8 5 2 2 5 6 4 8 9 8 7 6 5 3 4 6 7 6 5 4 4 3 3 3 3 3 3 3 4 4 4 4 4 4 4 5 5 5 5 5 5 6
4 5 6 4 2 1 2 5 2 4 6 5 3 4 5 5 6 7 6 4 4 3 3 3 3 2 2 3 4 4 4 5 5 4 4 5 5 5 5 4 5 5 5 5
7 7 7 3 1 2 3 4 3 3 5 4 4 6 7 7 7 6 5 4 3 2 2 3 3 2 3 3 4 5 5 5 5 4 5 5 5 4 4 4 4 5 5 5
5 6 7 2 4 4 4 4 3 4 5 5 7 7 7 6 6 5 5 4 3 2 3 3 2 2 3 4 5 5 4 4 4 4 4 4 4 4 4 4 4 5 5 5
7 6 2 4 4 4 4 5 5 5 6 6 7 7 7 7 6 5 4 4 3 3 3 3 3 3 4 5 5 4 4 4 4 4 4 4 4 4 4 4 4 4 4 5
5 8 7 6 6 6 6 7 7 6 6 6 7 7 8 7 6 5 4 3 3 2 3 3 4 4 4 4 4 4 4 4 4 4 4 4 4 4 4 4 4 4 5 5
7 8 8 7 7 8 7 7 7 7 6 6 6 7 7 6 5 5 4 3 2 3 3 4 4 4 4 4 4 3 4 4 4 4 4 4 4 4 5 5 5 5 5 6
8 6 6 7 5 5 6 7 7 6 6 6 5 6 6 5 4 4 4 3 3 3 3 4 4 4 4 4 3 3 4 4 3 3 4 4 4 5 6 6 8 9 9 8
6 6 7 8 7 6 6 7 6 6 6 6 5 5 5 4 4 3 3 3 3 4 4 4 4 4 4 4 4 4 4 4 4 4 4 4 4 4 5 5 7 8 9 10
6 5 6 6 6 6 6 6 5 5 5 4 4 4 3 3 3 3 4 4 4 3 3 3 4 5 5 4 4 4 5 5 5 4 4 4 5 5 5 5 6 6 6 8
6 6 7 6 6 5 4 4 4 5 5 5 4 3 3 3 4 4 4 3 3 3 3 4 4 5 5 4 4 5 4 4 4 4 4 4 5 5 5 5 5 6 6 6
6 6 6 6 6 5 4 4 4 5 5 5 4 4 4 3 3 3 3 3 3 4 4 4 5 5 5 4 5 4 4 6 5 4 4 4 4 4 5 5 5 6 6 6
4 5 4 5 6 6 5 5 5 5 5 5 5 4 3 3 3 3 4 4 4 4 5 5 5 5 5 4 4 4 4 4 6 5 4 4 4 4 5 5 5 6 6 7
6 7 6 6 6 6 6 5 5 5 5 5 4 3 3 3 4 4 5 4 4 5 5 5 5 5 5 5 4 4 4 4 4 4 4 4 5 5 5 5 5 6 6 6
4 4 4 5 4 4 5 5 5 4 4 3 3 3 4 4 4 4 4 4 4 5 5 5 7 5 5 5 5 4 4 4 4 4 4 5 5 5 5 5 5 6 6 6
4 3 3 4 3 3 3 4 4 3 3 2 2 3 3 4 4 4 4 4 4 5 6 6 6 5 5 5 5 3 4 4 4 4 4 4 5 5 5 5 5 6 6 5
4 4 3 3 3 3 3 3 3 3 3 3 2 3 4 5 4 4 4 4 5 6 6 6 5 5 5 4 5 3 4 4 4 4 4 5 5 5 5 5 5 6 6 6
4 4 4 3 3 4 4 3 3 3 3 3 3 3 4 4 4 4 4 4 5 7 6 4 4 6 6 5 3 3 4 4 4 4 4 5 5 5 5 6 6 6 6 6
4 4 4 3 3 4 4 3 3 3 3 3 4 4 4 4 4 4 4 4 5 7 6 4 6 8 8 4 3 4 4 4 5 5 5 5 5 5 6 6 6 6 6 6
4 4 4 3 3 3 4 4 4 3 3 4 4 4 4 4 3 3 4 6 7 8 5 6 8 8 7 3 4 4 4 4 5 5 5 5 5 5 5 6 6 6 6 7
3 3 3 3 3 3 3 4 4 4 4 3 4 4 3 3 3 4 5 5 7 7 5 6 8 8 5 4 4 4 4 4 5 5 5 5 5 5 5 5 5 6 6 6
3 3 3 3 3 3 3 3 3 3 3 4 4 4 4 3 4 4 4 4 5 6 5 4 5 5 4 4 4 4 4 5 5 5 5 5 5 5 5 6 7 6 6 6
3 3 2 2 3 3 3 3 3 3 3 4 4 4 4 4 4 4 4 4 4 4 4 4 4 4 4 4 4 4 4 4 4 5 5 5 5 5 5 6 6 6 6 6
Wind_Direction
264 274 266 261 251 222 219 232 245 261 263 276 289 295 299 299 299 298 300 301 298 297 302 307 309 309 309 305 301 291 279 278 284 288 292 293 292 294 298 295 290 286 281 275
269 266 262 273 263 243 240 245 249 265 274 283 295 301 296 294 291 289 291 292 291 294 297 299 300 303 304 305 301 289 279 281 288 294 300 299 297 300 298 294 291 290 283 279
266 292 291 272 251 229 225 226 229 248 265 295 303 293 292 296 294 290 293 290 287 284 285 289 290 291 292 298 299 287 284 288 292 297 300 300 299 299 296 295 294 291 287 286
267 281 251 269 29 231 233 245 239 261 283 291 290 297 295 288 288 293 297 294 288 284 286 289 290 291 295 298 296 291 289 291 296 297 298 300 297 296 299 299 295 292 290 286
226 254 271 282 275 219 227 265 252 257 279 298 311 305 294 309 305 294 295 293 285 283 283 286 287 293 301 301 301 296 293 295 296 294 294 295 294 296 301 300 298 296 290 290
222 243 257 298 345 313 218 267 267 246 273 298 316 293 310 342 327 312 309 307 297 298 298 290 293 297 295 297 299 297 299 298 297 293 290 290 293 297 297 295 295 298 296 294
231 243 263 328 26 147 211 293 328 258 265 266 258 280 306 316 315 312 310 311 307 302 300 297 298 294 289 295 297 302 301 298 296 293 291 292 297 296 297 297 299 300 298 295
211 232 259 120 140 202 269 320 296 278 268 268 279 293 300 304 306 310 314 314 307 304 305 307 300 288 291 296 303 306 301 297 296 296 298 299 299 301 301 302 302 303 303 304
207 230 305 168 217 261 299 287 286 284 281 280 285 291 298 300 300 302 304 305 303 297 303 310 305 291 287 297 305 302 298 297 299 301 299 299 295 296 298 297 295 299 301 304
247 262 272 260 264 276 278 278 286 286 285 281 281 288 294 297 298 301 302 302 299 291 294 302 308 305 296 299 299 292 292 296 298 298 298 297 292 289 289 289 290 293 296 296
253 273 293 271 263 271 279 284 289 291 284 278 278 285 289 291 293 293 296 296 286 278 281 291 301 304 305 302 295 287 289 293 295 294 294 296 294 287 283 279 280 285 288 287
251 257 256 277 290 286 282 283 283 287 293 291 279 280 287 288 288 287 283 283 284 285 286 290 295 298 302 298 287 281 286 291 291 293 294 294 296 298 290 284 290 288 288 290
262 288 276 283 296 299 292 289 290 281 280 289 290 283 282 288 288 288 284 281 280 281 284 290 294 296 300 298 287 278 279 283 284 286 286 288 290 294 302 305 295 290 291 293
269 285 279 282 289 300 301 300 296 293 293 292 293 295 290 290 292 287 287 286 287 287 290 292 294 297 302 299 290 283 280 279 282 282 282 283 285 288 291 297 303 304 301 297
279 268 266 286 297 305 309 308 306 306 308 308 305 301 294 289 287 291 299 305 297 296 298 299 297 300 306 298 288 283 282 283 285 285 283 283 286 288 288 289 293 299 305 308
295 287 276 275 283 296 304 302 298 301 306 304 304 302 297 292 294 300 305 307 294 292 294 294 293 299 302 295 290 285 282 287 292 290 287 288 288 288 289 291 293 295 298 303
280 283 282 284 287 291 290 289 288 292 297 296 296 300 303 307 311 309 310 311 301 290 289 290 295 301 299 293 288 287 289 290 292 291 287 287 287 287 288 290 293 295 296 299
263 268 269 271 276 284 292 297 297 295 294 294 295 294 291 289 290 296 305 312 312 308 304 304 303 303 300 297 290 287 288 289 288 288 289 290 293 292 292 292 294 295 300 304
298 290 290 287 282 279 284 291 295 297 298 293 285 285 286 286 289 296 303 304 304 307 312 312 310 308 301 295 293 285 285 287 288 288 289 293 295 293 292 292 294 295 298 301
322 324 322 319 316 303 295 298 301 301 299 291 288 293 299 302 305 305 302 294 292 300 305 306 307 304 299 292 291 284 281 283 285 287 288 289 290 291 292 292 294 295 296 297
326 329 330 329 328 322 309 303 301 302 304 297 287 289 296 303 306 304 302 303 311 314 313 311 312 305 303 304 291 284 281 282 284 285 286 287 289 289 290 292 293 294 295 296
325 326 326 328 330 328 327 321 312 308 311 311 307 303 305 308 312 309 296 292 307 314 319 311 308 309 318 314 303 294 289 288 287 287 286 287 287 288 289 291 291 292 293 294
324 324 324 325 322 321 328 330 325 319 314 312 310 308 305 302 303 302 307 312 312 313 317 308 312 318 324 323 311 303 298 294 291 289 288 288 287 287 288 289 289 290 291 293
326 329 327 327 328 332 334 335 334 328 320 315 314 312 310 310 310 305 301 308 317 316 315 315 322 326 329 325 313 306 299 295 294 294 293 291 290 289 289 289 289 291 291 293
322 324 328 331 330 327 327 331 333 335 333 330 330 330 324 312 303 311 315 313 317 322 321 322 327 330 331 320 314 308 303 298 299 301 301 301 299 296 293 292 292 293 293 293
320 316 316 317 315 317 322 324 325 329 331 330 332 335 334 330 322 320 320 322 323 327 328 325 327 329 327 322 317 314 310 308 309 307 303 302 300 299 297 297 297 294 294 294
332 331 329 334 338 334 328 322 320 323 325 322 323 328 331 332 333 335 333 331 332 332 331 331 331 330 329 327 324 321 317 314 312 310 307 303 300 297 297 297 297 297 299 299
Height
1498 1498 1499 1497 1498 1500 1499 1490 1485 1475 1476 1473 1474 1475 1475 1474 1473 1472 1471 1469 1468 1467 1466 1465 1464 1463 1462 1461 1460 1459 1458 1457 1456 1455 1454 1452 1451 1450 1448 1447 1446 1445 1444 1444
1499 1497 1497 1497 1494 1494 1494 1491 1486 1482 1479 1475 1475 1475 1473 1472 1471 1469 1468 1466 1465 1464 1463 1462 1461 1460 1459 1458 1457 1456 1455 1454 1453 1451 1449 1448 1447 1445 1444 1443 1442 1441 1440 1439
1489 1497 1496 1488 1485 1487 1488 1485 1483 1479 1474 1474 1474 1473 1471 1470 1468 1467 1465 1463 1462 1461 1460 1459 1458 1457 1456 1455 1454 1453 1452 1451 1449 1447 1446 1444 1443 1442 1441 1439 1438 1436 1435 1433
1492 1495 1489 1477 1483 1482 1481 1480 1481 1477 1474 1474 1473 1470 1468 1467 1465 1464 1462 1461 1459 1458 1457 1456 1455 1454 1453 1452 1451 1450 1448 1447 1445 1444 1442 1441 1440 1438 1437 1435 1433 1432 1430 1429
1492 1486 1476 1477 1481 1482 1481 1475 1475 1475 1473 1472 1470 1467 1464 1463 1462 1461 1459 1458 1456 1455 1454 1453 1452 1451 1450 1449 1448 1447 1445 1444 1442 1441 1439 1437 1436 1434 1433 1431 1429 1427 1425 1424
1493 1487 1478 1473 1480 1480 1480 1472 1471 1472 1471 1470 1469 1464 1462 1462 1460 1458 1456 1455 1453 1452 1451 1450 1449 1448 1447 1446 1445 1443 1442 1440 1439 1438 1436 1434 1432 1431 1429 1428 1425 1423 1421 1419
1491 1486 1476 1479 1480 1480 1477 1469 1470 1469 1469 1468 1467 1464 1462 1459 1457 1455 1454 1452 1451 1450 1448 1447 1446 1445 1444 1443 1442 1440 1439 1437 1436 1434 1433 1431 1429 1428 1426 1424 1422 1420 1418 1417
1490 1486 1478 1479 1480 1478 1472 1470 1469 1467 1466 1465 1463 1461 1459 1457 1455 1453 1451 1449 1448 1447 1446 1445 1444 1442 1441 1440 1439 1437 1436 1434 1433 1431 1430 1428 1426 1424 1422 1420 1418 1416 1414 1412
1483 1478 1475 1475 1474 1472 1471 1469 1466 1465 1464 1462 1460 1458 1456 1454 1452 1450 1449 1447 1446 1444 1443 1442 1441 1440 1438 1437 1436 1434 1432 1431 1429 1428 1426 1425 1423 1421 1419 1417 1416 1414 1412 1409
1481 1474 1473 1472 1471 1469 1468 1466 1464 1462 1461 1459 1457 1455 1453 1451 1449 1447 1446 1444 1443 1441 1440 1439 1438 1437 1436 1434 1433 1431 1429 1428 1426 1425 1423 1422 1420 1419 1417 1415 1413 1411 1409 1407
1477 1472 1470 1467 1466 1465 1463 1462 1460 1459 1457 1455 1454 1452 1450 1448 1446 1444 1443 1441 1440 1439 1437 1436 1435 1434 1432 1431 1430 1428 1426 1425 1423 1422 1420 1418 1417 1416 1414 1412 1411 1409 1407 1405
1468 1466 1467 1463 1462 1462 1460 1458 1456 1455 1453 1452 1450 1448 1447 1445 1443 1442 1440 1438 1437 1436 1435 1433 1432 1431 1429 1428 1427 1425 1423 1421 1420 1418 1417 1415 1413 1412 1410 1409 1407 1405 1404 1402
1464 1463 1462 1460 1459 1458 1456 1454 1453 1451 1450 1448 1447 1445 1443 1441 1440 1439 1437 1436 1434 1433 1432 1430 1429 1428 1426 1425 1424 1422 1420 1418 1417 1415 1414 1412 1410 1408 1406 1405 1403 1401 1399 1397
1462 1461 1459 1457 1456 1455 1453 1451 1449 1448 1447 1445 1444 1442 1440 1438 1437 1435 1434 1433 1432 1430 1429 1428 1426 1425 1423 1422 1420 1419 1417 1415 1414 1412 1410 1408 1407 1405 1403 1400 1398 1396 1395 1393
1458 1457 1456 1454 1453 1451 1450 1448 1446 1445 1443 1442 1440 1439 1437 1435 1434 1432 1432 1430 1429 1428 1426 1425 1423 1422 1420 1419 1417 1415 1413 1412 1410 1409 1407 1405 1403 1401 1399 1397 1395 1392 1390 1388
1455 1453 1452 1450 1449 1448 1447 1445 1443 1442 1440 1439 1437 1436 1434 1433 1431 1430 1429 1428 1426 1425 1423 1422 1420 1419 1417 1415 1413 1412 1410 1408 1407 1405 1403 1401 1400 1398 1396 1394 1391 1389 1387 1385
1451 1449 1448 1447 1446 1445 1443 1442 1441 1439 1437 1436 1434 1433 1431 1430 1429 1427 1426 1425 1424 1422 1421 1419 1417 1415 1414 1412 1410 1408 1407 1405 1403 1402 1400 1398 1396 1394 1392 1390 1388 1386 1384 1382
1448 1447 1446 1444 1443 1442 1440 1439 1438 1436 1435 1433 1432 1430 1429 1427 1426 1425 1424 1422 1421 1419 1418 1416 1414 1412 1410 1409 1407 1405 1404 1402 1400 1398 1396 1395 1393 1391 1389 1387 1384 1382 1380 1378
1445 1444 1443 1442 1440 1439 1437 1436 1435 1433 1432 1430 1429 1428 1426 1425 1424 1423 1421 1420 1418 1416 1414 1413 1411 1409 1407 1406 1404 1402 1400 1399 1397 1395 1393 1391 1389 1387 1385 1383 1381 1378 1376 1374
1443 1442 1440 1439 1438 1436 1435 1433 1432 1431 1429 1428 1427 1425 1424 1423 1422 1420 1418 1417 1415 1414 1412 1410 1408 1406 1404 1403 1401 1399 1397 1395 1394 1392 1390 1388 1386 1383 1381 1379 1377 1375 1372 1370
1441 1440 1438 1437 1435 1434 1433 1431 1430 1428 1427 1426 1424 1423 1422 1421 1419 1418 1416 1414 1413 1411 1409 1407 1405 1403 1401 1400 1398 1396 1394 1392 1390 1388 1386 1384 1382 1380 1378 1375 1373 1371 1369 1366
1439 1438 1436 1435 1433 1432 1431 1430 1428 1427 1425 1424 1423 1421 1420 1418 1417 1415 1414 1412 1410 1408 1406 1404 1402 1401 1399 1397 1395 1392 1390 1388 1387 1385 1383 1380 1378 1376 1374 1372 1370 1367 1365 1363
1438 1436 1435 1433 1432 1430 1429 1428 1427 1425 1424 1422 1421 1419 1417 1416 1414 1412 1411 1409 1407 1405 1404 1402 1400 1398 1396 1394 1391 1389 1387 1385 1383 1381 1379 1377 1374 1372 1370 1368 1366 1364 1362 1360
1437 1435 1433 1432 1430 1429 1427 1426 1425 1423 1422 1420 1419 1417 1415 1413 1412 1411 1409 1407 1405 1403 1401 1399 1397 1395 1393 1391 1388 1386 1384 1382 1380 1378 1375 1373 1371 1369 1367 1365 1363 1361 1358 1356
1435 1433 1432 1430 1429 1427 1426 1424 1423 1421 1420 1418 1417 1415 1413 1412 1410 1408 1406 1404 1402 1401 1399 1396 1394 1392 1390 1388 1386 1384 1381 1379 1377 1375 1372 1370 1368 1366 1363 1361 1359 1357 1355 1353
1434 1432 1431 1429 1428 1426 1424 1423 1421 1419 1418 1416 1415 1413 1411 1410 1408 1406 1404 1402 1400 1398 1396 1394 1392 1390 1388 1386 1383 1381 1379 1377 1375 1372 1370 1368 1365 1363 1361 1359 1357 1355 1353 1351
1432 1431 1429 1428 1426 1425 1423 1421 1420 1418 1416 1414 1413 1411 1409 1408 1406 1404 1402 1400 1398 1396 1394 1392 1390 1388 1386 1383 1381 1379 1377 1375 1372 1370 1368 1365 1363 1361 1359 1356 1354 1352 1350 1348